When you browse on this site, cookies collect data to enhance your experience and personalize the content and advertising you see.
Visit our Privacy Policy to learn more. By continuing to use the site, you agree to this use of cookies and data.
  • In Romania
  • List of Countries
  • For 7 days
  • Water Temperature
  • Satellite Maps
  • Weather Map
  • Weather Widgets
  • user-avatar
    Login

    Hourly Weather Cochabamba

    Today, 24 March, Sunday

    Time Temperature Precipitation Wind Pressure Humidity
    00:00 +16°C° 0 mm 1 mps 556 mmHg 78%
    01:00 +16°C° 0 mm 1 mps 556 mmHg 77%
    02:00 +15°C° 0 mm 1 mps 556 mmHg 77%
    03:00 +15°C° 0 mm 1 mps 555 mmHg 78%
    04:00 +14°C° 0 mm 1 mps 554 mmHg 79%
    05:00 +13°C° 0 mm 1 mps 554 mmHg 79%
    06:00 +15°C° 0 mm 1 mps 555 mmHg 71%
    07:00 +16°C° 0 mm 1 mps 556 mmHg 63%
    08:00 +18°C° 0 mm 1 mps 557 mmHg 54%
    09:00 +20°C° 0 mm 1 mps 557 mmHg 49%
    10:00 +22°C° 0 mm 1 mps 558 mmHg 45%
    11:00 +23°C° 0 mm 2 mps 559 mmHg 40%
    12:00 +24°C° 0.1 mm 2 mps 558 mmHg 40%
    13:00 +24°C° 0.1 mm 2 mps 558 mmHg 41%
    14:00 +25°C° 0.1 mm 2 mps 557 mmHg 42%
    15:00 +24°C° 0.5 mm 3 mps 557 mmHg 46%
    16:00 +24°C° 0.5 mm 3 mps 556 mmHg 50%
    17:00 +22°C° 0.5 mm 4 mps 556 mmHg 54%
    18:00 +20°C° 0.8 mm 3 mps 556 mmHg 60%
    19:00 +19°C° 0.8 mm 3 mps 556 mmHg 67%
    20:00 +18°C° 0.8 mm 3 mps 555 mmHg 73%
    21:00 +17°C° 1.4 mm 2 mps 556 mmHg 75%
    22:00 +17°C° 1.4 mm 2 mps 556 mmHg 78%
    23:00 +16°C° 1.4 mm 1 mps 557 mmHg 80%

    Tomorrow, 25 March, Monday

    Time Temperature Precipitation Wind Pressure Humidity
    00:00 +16°C° 1.5 mm 1 mps 556 mmHg 81%
    01:00 +16°C° 1.5 mm 1 mps 556 mmHg 82%
    02:00 +15°C° 1.5 mm 1 mps 555 mmHg 83%
    03:00 +15°C° 0.8 mm 1 mps 555 mmHg 83%
    04:00 +15°C° 0.8 mm 1 mps 555 mmHg 84%
    05:00 +14°C° 0.8 mm 1 mps 554 mmHg 85%
    06:00 +15°C° 0.9 mm 1 mps 555 mmHg 83%
    07:00 +15°C° 0.9 mm 1 mps 555 mmHg 82%
    08:00 +15°C° 0.9 mm 1 mps 555 mmHg 80%
    09:00 +16°C° 1 mm 2 mps 556 mmHg 76%
    10:00 +17°C° 1 mm 2 mps 557 mmHg 71%
    11:00 +18°C° 1 mm 2 mps 557 mmHg 67%
    12:00 +18°C° 0.5 mm 2 mps 557 mmHg 64%
    13:00 +19°C° 0.5 mm 2 mps 556 mmHg 61%
    14:00 +20°C° 0.5 mm 3 mps 556 mmHg 58%
    15:00 +20°C° 0.5 mm 2 mps 555 mmHg 60%
    16:00 +19°C° 0.5 mm 2 mps 555 mmHg 62%
    17:00 +19°C° 0.5 mm 2 mps 554 mmHg 64%
    18:00 +18°C° 0.6 mm 2 mps 554 mmHg 68%
    19:00 +17°C° 0.6 mm 2 mps 554 mmHg 71%
    20:00 +16°C° 0.6 mm 2 mps 555 mmHg 75%
    21:00 +16°C° 0.7 mm 1 mps 555 mmHg 76%
    22:00 +16°C° 0.7 mm 1 mps 555 mmHg 77%
    23:00 +16°C° 0.7 mm 1 mps 556 mmHg 78%

    Day after tomorrow, 26 March, Tuesday

    Time Temperature Precipitation Wind Pressure Humidity
    00:00 +15°C° 1.5 mm 1 mps 555 mmHg 80%
    01:00 +14°C° 1.5 mm 0 mps 555 mmHg 82%
    02:00 +14°C° 1.5 mm 0 mps 554 mmHg 83%
    03:00 +13°C° 1.7 mm 0 mps 554 mmHg 84%
    04:00 +14°C° 1.7 mm 1 mps 554 mmHg 84%
    05:00 +14°C° 1.7 mm 1 mps 553 mmHg 85%
    06:00 +14°C° 1.6 mm 1 mps 554 mmHg 84%
    07:00 +14°C° 1.6 mm 1 mps 555 mmHg 82%
    08:00 +15°C° 1.6 mm 1 mps 555 mmHg 81%
    09:00 +15°C° 1.9 mm 1 mps 556 mmHg 79%
    10:00 +15°C° 1.9 mm 2 mps 556 mmHg 77%
    11:00 +16°C° 1.9 mm 2 mps 556 mmHg 75%
    12:00 +16°C° 2 mm 2 mps 556 mmHg 74%
    13:00 +16°C° 2 mm 2 mps 555 mmHg 74%
    14:00 +16°C° 2 mm 2 mps 555 mmHg 73%
    15:00 +16°C° 1.4 mm 2 mps 554 mmHg 73%
    16:00 +16°C° 1.4 mm 2 mps 554 mmHg 73%
    17:00 +16°C° 1.4 mm 2 mps 554 mmHg 73%
    18:00 +15°C° 1.2 mm 2 mps 554 mmHg 75%
    19:00 +15°C° 1.2 mm 2 mps 554 mmHg 78%
    20:00 +14°C° 1.2 mm 2 mps 555 mmHg 80%
    21:00 +14°C° 1.5 mm 1 mps 555 mmHg 82%
    22:00 +14°C° 1.5 mm 1 mps 556 mmHg 83%
    23:00 +14°C° 1.5 mm 1 mps 556 mmHg 85%

    27 March, Wednesday

    Time Temperature Precipitation Wind Pressure Humidity
    00:00 +13°C° 1.9 mm 1 mps 555 mmHg 85%
    01:00 +13°C° 1.9 mm 1 mps 555 mmHg 86%
    02:00 +13°C° 1.9 mm 1 mps 555 mmHg 87%
    03:00 +13°C° 1.4 mm 1 mps 555 mmHg 87%
    04:00 +13°C° 1.4 mm 1 mps 554 mmHg 87%
    05:00 +13°C° 1.4 mm 1 mps 554 mmHg 87%
    06:00 +13°C° 0.9 mm 1 mps 555 mmHg 86%
    07:00 +13°C° 0.9 mm 1 mps 556 mmHg 84%
    08:00 +13°C° 0.9 mm 1 mps 556 mmHg 83%
    09:00 +14°C° 1.2 mm 1 mps 557 mmHg 80%
    10:00 +15°C° 1.2 mm 1 mps 557 mmHg 77%
    11:00 +15°C° 1.2 mm 2 mps 558 mmHg 74%
    12:00 +16°C° 1.2 mm 2 mps 557 mmHg 72%
    13:00 +16°C° 1.2 mm 2 mps 557 mmHg 70%
    14:00 +17°C° 1.2 mm 2 mps 556 mmHg 68%
    15:00 +17°C° 0.6 mm 2 mps 556 mmHg 68%
    16:00 +17°C° 0.6 mm 2 mps 556 mmHg 67%
    17:00 +17°C° 0.6 mm 2 mps 556 mmHg 66%
    18:00 +16°C° 0.2 mm 2 mps 556 mmHg 69%
    19:00 +16°C° 0.2 mm 2 mps 556 mmHg 72%
    20:00 +15°C° 0.2 mm 1 mps 556 mmHg 75%
    21:00 +15°C° 0.1 mm 1 mps 557 mmHg 77%
    22:00 +14°C° 0.1 mm 1 mps 557 mmHg 79%
    23:00 +14°C° 0.1 mm 1 mps 557 mmHg 81%

    28 March, Thursday

    Time Temperature Precipitation Wind Pressure Humidity
    00:00 +14°C° 0.1 mm 1 mps 557 mmHg 82%
    01:00 +14°C° 0.1 mm 1 mps 556 mmHg 83%
    02:00 +13°C° 0.1 mm 1 mps 556 mmHg 85%
    03:00 +13°C° 0.1 mm 1 mps 556 mmHg 85%
    04:00 +13°C° 0.1 mm 1 mps 555 mmHg 86%
    05:00 +13°C° 0.1 mm 1 mps 555 mmHg 87%
    06:00 +13°C° 0.1 mm 1 mps 556 mmHg 84%
    07:00 +14°C° 0.1 mm 1 mps 556 mmHg 82%
    08:00 +14°C° 0.1 mm 1 mps 557 mmHg 79%
    09:00 +16°C° 0 mm 1 mps 558 mmHg 72%
    10:00 +18°C° 0 mm 1 mps 558 mmHg 66%
    11:00 +19°C° 0 mm 1 mps 559 mmHg 59%
    12:00 +19°C° 0 mm 2 mps 558 mmHg 57%
    13:00 +20°C° 0 mm 2 mps 558 mmHg 56%
    14:00 +21°C° 0 mm 2 mps 558 mmHg 54%
    15:00 +20°C° 0 mm 2 mps 557 mmHg 56%
    16:00 +20°C° 0 mm 3 mps 557 mmHg 57%
    17:00 +20°C° 0 mm 3 mps 556 mmHg 59%
    18:00 +19°C° 0 mm 2 mps 557 mmHg 64%
    19:00 +18°C° 0 mm 2 mps 557 mmHg 69%
    20:00 +17°C° 0 mm 2 mps 557 mmHg 74%
    21:00 +16°C° 0 mm 2 mps 557 mmHg 75%
    22:00 +16°C° 0 mm 2 mps 557 mmHg 77%
    23:00 +15°C° 0 mm 2 mps 557 mmHg 79%

    29 March, Friday

    Time Temperature Precipitation Wind Pressure Humidity
    00:00 +15°C° 0 mm 2 mps 557 mmHg 81%
    01:00 +14°C° 0 mm 1 mps 556 mmHg 83%
    02:00 +14°C° 0 mm 1 mps 556 mmHg 85%
    03:00 +13°C° 0 mm 1 mps 555 mmHg 84%
    04:00 +13°C° 0 mm 1 mps 555 mmHg 84%
    05:00 +13°C° 0 mm 1 mps 555 mmHg 83%
    06:00 +14°C° 0 mm 1 mps 556 mmHg 81%
    07:00 +14°C° 0 mm 1 mps 556 mmHg 79%
    08:00 +15°C° 0 mm 1 mps 557 mmHg 76%
    09:00 +16°C° 0 mm 1 mps 557 mmHg 72%
    10:00 +17°C° 0 mm 2 mps 558 mmHg 67%
    11:00 +18°C° 0 mm 2 mps 558 mmHg 62%
    12:00 +18°C° 0 mm 2 mps 558 mmHg 60%
    13:00 +19°C° 0 mm 2 mps 557 mmHg 59%
    14:00 +20°C° 0 mm 2 mps 557 mmHg 58%
    15:00 +20°C° 0.1 mm 2 mps 557 mmHg 58%
    16:00 +19°C° 0.1 mm 2 mps 556 mmHg 58%
    17:00 +19°C° 0.1 mm 2 mps 556 mmHg 58%
    18:00 +18°C° 0 mm 2 mps 556 mmHg 61%
    19:00 +17°C° 0 mm 2 mps 556 mmHg 64%
    20:00 +16°C° 0 mm 2 mps 555 mmHg 67%
    21:00 +15°C° 0.1 mm 1 mps 556 mmHg 69%
    22:00 +15°C° 0.1 mm 1 mps 556 mmHg 71%
    23:00 +15°C° 0.1 mm 1 mps 556 mmHg 72%
    Show more